Location: Avully
(45.9633°N, 6.0228°E)
Time: 21:23:09
(UTC+00:00)

Cosmos 2360 Rocket - Pass Details

Date: 15 August 2024
Orbit: 834 x 843 km, 71.0° (Epoch: 10 September)

Event Time Altitude Azimuth Distance (km) Brightness Sun altitude
Exits shadow 01:34:20 11° 287° (WNW) 2,364 4.4 -24.8°
Maximum altitude 01:37:11 16° 320° (NW) 2,079 4.4 -24.6°
Drops below altitude 10° 01:40:34 10° 357° (N) 2,468 5.3 -24.3°
Sets 01:44:05 0° 19° (NNE) 3,405 6.6 -23.9°
